Simultaneous Nadir Overpasses (SNOs) Predictions

Prediction of SNOs between METOP-B and NOAA-19 Satellite Orbit:

Table of predicted SNOs for the next 14.0 days since TLE Epoch: 5/15/2020
Index Date (METOP-B) Time (METOP-B) Lat,Lon (METOP-B) SZA (METOP-B ) Date (NOAA-19) Time (NOAA-19) Lat,Lon (NOAA-19) SZA (NOAA-19 ) Distance(km) Time Diff (sec)
1 05/19/2020 15:15:56 79.99, -26.89 60.83 05/19/2020 15:14:49 79.98, -26.95 60.80 1.17 67
2 05/19/2020 16:06:38 -79.96, 140.21 119.22 05/19/2020 16:05:44 -79.98, 140.30 119.21 2.79 54
3 05/19/2020 16:57:18 79.97, -52.36 60.80 05/19/2020 16:56:49 79.97, -52.26 60.79 2.15 29
4 05/19/2020 17:47:59 -79.98, 115.04 119.20 05/19/2020 17:47:44 -79.97, 114.99 119.22 1.61 15
5 05/19/2020 18:38:40 79.96, -77.83 60.76 05/19/2020 18:38:50 79.98, -77.88 60.77 1.98 10
6 05/19/2020 19:29:21 -79.97, 89.57 119.24 05/19/2020 19:29:44 -79.95, 89.68 119.24 2.62 23
7 05/19/2020 20:20:02 79.95,-103.30 60.72 05/19/2020 20:20:50 79.96,-103.18 60.76 2.65 48




NCC Satellite Simultaneous Nadir Overpasses (SNOs) Prediction Service
